Time,TemperatureF,DewpointF,PressureIn,WindDirection,WindDirectionDegrees,WindSpeedMPH,WindSpeedGustMPH,Humidity,HourlyPrecipIn,Conditions,Clouds,dailyrainin,SoftwareType,DateUTC
2013-05-10 00:04:00,59.8,59.0,0.00,NNW,329,0.0,-999.0,97,-99.99,,,0.00,weatherlink.com 1.10,2013-05-10 04:04:00,
2013-05-10 00:19:00,59.4,59.0,0.00,NNW,329,0.0,-999.0,97,-99.99,,,0.01,weatherlink.com 1.10,2013-05-10 04:19:00,
2013-05-10 00:34:00,59.0,58.0,0.00,NNW,329,0.0,-999.0,97,-99.99,,,0.01,weatherlink.com 1.10,2013-05-10 04:34:00,
2013-05-10 00:49:00,58.8,58.0,0.00,NNW,329,0.0,-999.0,97,-99.99,,,0.02,weatherlink.com 1.10,2013-05-10 04:49:00,
2013-05-10 01:04:00,58.5,58.0,0.00,NNW,329,0.0,-999.0,97,-99.99,,,0.02,weatherlink.com 1.10,2013-05-10 05:04:00,
2013-05-10 01:19:00,58.3,58.0,0.00,NNW,329,0.0,-999.0,97,-99.99,,,0.02,weatherlink.com 1.10,2013-05-10 05:19:00,
2013-05-10 01:34:00,58.2,57.0,0.00,NNW,329,0.0,-999.0,97,-99.99,,,0.02,weatherlink.com 1.10,2013-05-10 05:34:00,
2013-05-10 01:49:00,58.0,57.0,0.00,NNW,329,0.0,-999.0,97,-99.99,,,0.02,weatherlink.com 1.10,2013-05-10 05:49:00,
2013-05-10 02:04:00,57.9,57.0,0.00,NNW,329,0.0,-999.0,97,-99.99,,,0.02,weatherlink.com 1.10,2013-05-10 06:04:00,
2013-05-10 02:19:00,57.8,57.0,0.00,NNW,329,0.0,-999.0,98,-99.99,,,0.02,weatherlink.com 1.10,2013-05-10 06:19:00,
2013-05-10 02:34:00,57.5,57.0,0.00,NNW,329,0.0,-999.0,97,-99.99,,,0.02,weatherlink.com 1.10,2013-05-10 06:34:00,
2013-05-10 02:49:00,57.2,57.0,0.00,NNW,329,0.0,-999.0,98,-99.99,,,0.02,weatherlink.com 1.10,2013-05-10 06:49:00,
2013-05-10 03:04:00,57.0,57.0,0.00,NNW,329,0.0,-999.0,98,-99.99,,,0.02,weatherlink.com 1.10,2013-05-10 07:04:00,
2013-05-10 03:19:00,56.7,56.0,0.00,NNW,329,0.0,-999.0,97,-99.99,,,0.02,weatherlink.com 1.10,2013-05-10 07:19:00,
2013-05-10 03:34:00,56.4,56.0,0.00,NNW,329,0.0,-999.0,98,-99.99,,,0.02,weatherlink.com 1.10,2013-05-10 07:34:00,
2013-05-10 03:49:00,56.2,55.0,0.00,NNW,329,0.0,-999.0,97,-99.99,,,0.02,weatherlink.com 1.10,2013-05-10 07:49:00,
2013-05-10 04:04:00,55.9,55.0,0.00,NNW,329,0.0,-999.0,98,-99.99,,,0.02,weatherlink.com 1.10,2013-05-10 08:04:00,
2013-05-10 04:19:00,55.7,55.0,0.00,NNW,329,0.0,-999.0,97,-99.99,,,0.02,weatherlink.com 1.10,2013-05-10 08:19:00,
2013-05-10 04:34:00,55.4,55.0,0.00,NNW,329,0.0,-999.0,97,-99.99,,,0.02,weatherlink.com 1.10,2013-05-10 08:34:00,
2013-05-10 04:49:00,55.2,55.0,0.00,NNW,329,0.0,-999.0,98,-99.99,,,0.02,weatherlink.com 1.10,2013-05-10 08:49:00,
2013-05-10 05:04:00,54.9,54.0,0.00,NNW,329,0.0,-999.0,97,-99.99,,,0.02,weatherlink.com 1.10,2013-05-10 09:04:00,
2013-05-10 05:19:00,54.8,54.0,0.00,NNW,329,0.0,-999.0,98,-99.99,,,0.02,weatherlink.com 1.10,2013-05-10 09:19:00,
2013-05-10 05:34:00,54.6,54.0,0.00,North,355,0.0,-999.0,98,-99.99,,,0.02,weatherlink.com 1.10,2013-05-10 09:34:00,
2013-05-10 05:49:00,54.4,54.0,0.00,WSW,246,0.0,-999.0,97,-99.99,,,0.02,weatherlink.com 1.10,2013-05-10 09:49:00,
2013-05-10 06:04:00,54.2,54.0,0.00,SSW,192,0.0,-999.0,98,-99.99,,,0.02,weatherlink.com 1.10,2013-05-10 10:04:00,
2013-05-10 06:19:00,54.2,54.0,0.00,South,191,0.0,-999.0,98,-99.99,,,0.02,weatherlink.com 1.10,2013-05-10 10:19:00,
2013-05-10 06:34:00,54.3,54.0,0.00,South,191,0.0,-999.0,98,-99.99,,,0.02,weatherlink.com 1.10,2013-05-10 10:34:00,
2013-05-10 06:49:00,55.0,55.0,0.00,NW,305,0.0,-999.0,98,-99.99,,,0.02,weatherlink.com 1.10,2013-05-10 10:49:00,
2013-05-10 07:04:00,56.0,56.0,0.00,NW,305,0.0,-999.0,98,-99.99,,,0.02,weatherlink.com 1.10,2013-05-10 11:04:00,
2013-05-10 07:19:00,57.1,57.0,0.00,NW,304,0.0,-999.0,98,-99.99,,,0.02,weatherlink.com 1.10,2013-05-10 11:19:00,
2013-05-10 07:34:00,58.7,59.0,0.00,ENE,67,0.0,-999.0,99,-99.99,,,0.02,weatherlink.com 1.10,2013-05-10 11:34:00,
2013-05-10 07:49:00,60.3,60.0,0.00,ENE,67,0.0,-999.0,99,-99.99,,,0.02,weatherlink.com 1.10,2013-05-10 11:49:00,
2013-05-10 08:05:00,61.3,61.0,0.00,ENE,67,0.0,-999.0,99,-99.99,,,0.02,weatherlink.com 1.10,2013-05-10 12:05:00,
2013-05-10 08:20:00,62.5,62.0,0.00,ENE,67,0.0,-999.0,99,-99.99,,,0.02,weatherlink.com 1.10,2013-05-10 12:20:00,
2013-05-10 08:35:00,63.6,63.0,0.00,ENE,67,0.0,-999.0,99,-99.99,,,0.02,weatherlink.com 1.10,2013-05-10 12:35:00,
2013-05-10 08:50:00,64.7,64.0,0.00,ENE,67,0.0,-999.0,99,-99.99,,,0.02,weatherlink.com 1.10,2013-05-10 12:50:00,
2013-05-10 09:05:00,65.3,65.0,0.00,ENE,67,0.0,-999.0,99,-99.99,,,0.02,weatherlink.com 1.10,2013-05-10 13:05:00,
2013-05-10 09:20:00,66.3,66.0,0.00,South,171,0.0,-999.0,99,-99.99,,,0.02,weatherlink.com 1.10,2013-05-10 13:20:00,
2013-05-10 09:35:00,67.4,67.0,0.00,South,171,0.0,-999.0,98,-99.99,,,0.02,weatherlink.com 1.10,2013-05-10 13:35:00,
2013-05-10 09:50:00,68.8,67.0,0.00,South,171,0.0,-999.0,95,-99.99,,,0.02,weatherlink.com 1.10,2013-05-10 13:50:00,
2013-05-10 10:05:00,70.7,68.0,0.00,SSE,150,0.0,-999.0,91,-99.99,,,0.02,weatherlink.com 1.10,2013-05-10 14:05:00,
2013-05-10 10:20:00,72.2,68.0,0.00,SSE,150,0.0,-999.0,86,-99.99,,,0.02,weatherlink.com 1.10,2013-05-10 14:20:00,
2013-05-10 10:35:00,72.8,67.0,0.00,ENE,57,0.0,-999.0,82,-99.99,,,0.02,weatherlink.com 1.10,2013-05-10 14:35:00,
2013-05-10 10:50:00,74.5,67.0,0.00,East,94,0.0,-999.0,77,-99.99,,,0.02,weatherlink.com 1.10,2013-05-10 14:50:00,
2013-05-10 11:05:00,76.5,69.0,0.00,East,81,0.0,-999.0,77,-99.99,,,0.02,weatherlink.com 1.10,2013-05-10 15:05:00,
2013-05-10 11:20:00,77.5,69.0,0.00,ESE,108,0.0,-999.0,75,-99.99,,,0.02,weatherlink.com 1.10,2013-05-10 15:20:00,
2013-05-10 11:35:00,77.6,68.0,0.00,SE,132,0.0,-999.0,73,-99.99,,,0.02,weatherlink.com 1.10,2013-05-10 15:35:00,
2013-05-10 11:50:00,77.9,67.0,0.00,SE,141,0.0,-999.0,70,-99.99,,,0.02,weatherlink.com 1.10,2013-05-10 15:50:00,
2013-05-10 12:00:00,78.0,66.2,19.08,East,92,0.0,1.0,67,0.00,,,0.02,Wunderground v.1.15,2013-05-10 16:00:00,
2013-05-10 12:05:00,78.2,65.0,19.08,ESE,102,0.0,1.0,64,0.00,,,0.02,Wunderground v.1.15,2013-05-10 16:05:00,
2013-05-10 12:10:00,78.1,64.5,19.08,ESE,103,0.0,0.0,63,0.00,,,0.02,Wunderground v.1.15,2013-05-10 16:10:00,
2013-05-10 12:20:00,78.2,64.6,19.08,ESE,115,0.0,0.0,63,0.00,,,0.02,Wunderground v.1.15,2013-05-10 16:20:00,
2013-05-10 12:25:00,78.2,65.9,19.08,East,95,0.0,0.0,66,0.00,,,0.02,Wunderground v.1.15,2013-05-10 16:25:00,
2013-05-10 12:30:00,78.4,65.2,19.08,East,97,0.0,0.0,64,0.00,,,0.02,Wunderground v.1.15,2013-05-10 16:30:00,
2013-05-10 12:35:00,78.7,65.5,19.08,SSE,165,0.0,0.0,64,0.00,,,0.02,Wunderground v.1.15,2013-05-10 16:35:00,
2013-05-10 12:40:00,79.0,65.8,19.08,SSE,153,0.0,1.0,64,0.00,,,0.02,Wunderground v.1.15,2013-05-10 16:40:00,
2013-05-10 12:50:00,79.4,65.2,19.08,ESE,118,0.0,1.0,62,0.00,,,0.02,Wunderground v.1.15,2013-05-10 16:50:00,
2013-05-10 12:55:00,79.5,66.3,19.08,ESE,114,0.0,1.0,64,0.00,,,0.02,Wunderground v.1.15,2013-05-10 16:55:00,
2013-05-10 13:05:00,79.6,65.9,19.08,ESE,117,0.0,0.0,63,0.00,,,0.02,Wunderground v.1.15,2013-05-10 17:05:00,
2013-05-10 13:10:00,79.8,64.2,19.08,ESE,117,0.0,0.0,59,0.00,,,0.02,Wunderground v.1.15,2013-05-10 17:10:00,
2013-05-10 13:20:00,80.5,65.3,19.08,ESE,123,0.0,0.0,60,0.00,,,0.02,Wunderground v.1.15,2013-05-10 17:20:00,
2013-05-10 13:25:00,80.8,66.1,19.08,ESE,107,0.0,0.0,61,0.00,,,0.02,Wunderground v.1.15,2013-05-10 17:25:00,
2013-05-10 13:30:00,81.0,65.3,19.08,ESE,109,0.0,0.0,59,0.00,,,0.02,Wunderground v.1.15,2013-05-10 17:30:00,
2013-05-10 13:35:00,81.2,66.5,19.08,ESE,106,0.0,1.0,61,0.00,,,0.02,Wunderground v.1.15,2013-05-10 17:35:00,
2013-05-10 13:40:00,81.4,64.7,19.08,SSW,207,0.0,1.0,57,0.00,,,0.02,Wunderground v.1.15,2013-05-10 17:40:00,
2013-05-10 13:45:00,81.4,65.7,19.08,South,186,1.0,1.0,59,0.00,,,0.02,Wunderground v.1.15,2013-05-10 17:45:00,
2013-05-10 13:51:00,81.4,65.0,0.00,South,184,0.0,-999.0,57,-99.99,,,0.02,weatherlink.com 1.10,2013-05-10 17:51:00,
2013-05-10 14:00:00,81.8,65.6,19.08,West,260,0.0,2.0,58,0.00,,,0.02,Wunderground v.1.15,2013-05-10 18:00:00,
2013-05-10 14:05:00,82.0,64.2,19.08,SSE,153,1.0,2.0,55,0.00,,,0.02,Wunderground v.1.15,2013-05-10 18:05:00,
2013-05-10 14:10:00,82.0,64.8,19.08,SE,138,1.0,1.0,56,0.00,,,0.02,Wunderground v.1.15,2013-05-10 18:10:00,
2013-05-10 14:21:00,82.2,64.0,0.00,SSE,155,0.0,-999.0,55,-99.99,,,0.02,weatherlink.com 1.10,2013-05-10 18:21:00,
2013-05-10 14:36:00,82.4,64.0,0.00,SE,142,0.0,-999.0,54,-99.99,,,0.02,weatherlink.com 1.10,2013-05-10 18:36:00,
2013-05-10 14:51:00,82.7,65.0,0.00,East,84,0.0,-999.0,56,-99.99,,,0.02,weatherlink.com 1.10,2013-05-10 18:51:00,
2013-05-10 15:06:00,83.3,66.0,0.00,South,183,1.0,-999.0,56,-99.99,,,0.02,weatherlink.com 1.10,2013-05-10 19:06:00,
2013-05-10 15:21:00,84.0,66.0,0.00,SSW,194,0.0,-999.0,54,-99.99,,,0.02,weatherlink.com 1.10,2013-05-10 19:21:00,
2013-05-10 15:36:00,84.5,66.0,0.00,West,267,0.0,-999.0,54,-99.99,,,0.02,weatherlink.com 1.10,2013-05-10 19:36:00,
2013-05-10 15:51:00,85.1,66.0,0.00,SSE,149,0.0,-999.0,53,-99.99,,,0.02,weatherlink.com 1.10,2013-05-10 19:51:00,
2013-05-10 16:06:00,85.1,65.0,0.00,South,172,0.0,-999.0,52,-99.99,,,0.02,weatherlink.com 1.10,2013-05-10 20:06:00,
2013-05-10 16:21:00,84.6,66.0,0.00,SE,134,0.0,-999.0,54,-99.99,,,0.02,weatherlink.com 1.10,2013-05-10 20:21:00,
2013-05-10 16:36:00,84.5,67.0,0.00,SE,134,1.0,-999.0,55,-99.99,,,0.02,weatherlink.com 1.10,2013-05-10 20:36:00,
2013-05-10 16:51:00,84.1,65.0,0.00,South,191,0.0,-999.0,53,-99.99,,,0.02,weatherlink.com 1.10,2013-05-10 20:51:00,
2013-05-10 17:00:00,83.9,65.5,19.08,ENE,67,1.0,1.0,54,0.00,,,0.02,Wunderground v.1.15,2013-05-10 21:00:00,
2013-05-10 17:06:00,83.8,65.0,0.00,ENE,67,0.0,-999.0,54,-99.99,,,0.02,weatherlink.com 1.10,2013-05-10 21:06:00,
2013-05-10 17:21:00,83.5,66.0,0.00,ESE,114,0.0,-999.0,55,-99.99,,,0.02,weatherlink.com 1.10,2013-05-10 21:21:00,
2013-05-10 17:36:00,83.8,65.0,0.00,South,182,0.0,-999.0,54,-99.99,,,0.02,weatherlink.com 1.10,2013-05-10 21:36:00,
2013-05-10 17:51:00,83.4,66.0,0.00,SE,130,1.0,-999.0,55,-99.99,,,0.02,weatherlink.com 1.10,2013-05-10 21:51:00,
2013-05-10 18:06:00,82.8,66.0,0.00,East,95,1.0,-999.0,57,-99.99,,,0.02,weatherlink.com 1.10,2013-05-10 22:06:00,
2013-05-10 18:21:00,82.2,65.0,0.00,South,173,0.0,-999.0,57,-99.99,,,0.02,weatherlink.com 1.10,2013-05-10 22:21:00,
2013-05-10 18:36:00,81.4,66.0,0.00,SE,131,0.0,-999.0,59,-99.99,,,0.02,weatherlink.com 1.10,2013-05-10 22:36:00,
2013-05-10 18:51:00,80.6,66.0,0.00,SE,132,0.0,-999.0,61,-99.99,,,0.02,weatherlink.com 1.10,2013-05-10 22:51:00,
2013-05-10 19:06:00,79.8,65.0,0.00,SE,134,0.0,-999.0,61,-99.99,,,0.02,weatherlink.com 1.10,2013-05-10 23:06:00,
2013-05-10 19:21:00,79.5,65.0,0.00,SE,133,0.0,-999.0,62,-99.99,,,0.02,weatherlink.com 1.10,2013-05-10 23:21:00,
2013-05-10 19:36:00,78.9,66.0,0.00,SE,135,0.0,-999.0,64,-99.99,,,0.02,weatherlink.com 1.10,2013-05-10 23:36:00,
2013-05-10 19:51:00,78.2,65.0,0.00,SE,127,0.0,-999.0,65,-99.99,,,0.02,weatherlink.com 1.10,2013-05-10 23:51:00,
2013-05-10 20:06:00,77.3,65.0,0.00,SE,128,0.0,-999.0,66,-99.99,,,0.02,weatherlink.com 1.10,2013-05-11 00:06:00,
2013-05-10 20:21:00,76.5,65.0,0.00,SW,221,0.0,-999.0,68,-99.99,,,0.02,weatherlink.com 1.10,2013-05-11 00:21:00,
2013-05-10 20:36:00,75.8,65.0,0.00,SW,219,0.0,-999.0,70,-99.99,,,0.02,weatherlink.com 1.10,2013-05-11 00:36:00,
2013-05-10 20:51:00,75.2,65.0,0.00,SW,219,0.0,-999.0,71,-99.99,,,0.02,weatherlink.com 1.10,2013-05-11 00:51:00,
2013-05-10 21:06:00,74.5,65.0,0.00,SW,220,0.0,-999.0,73,-99.99,,,0.02,weatherlink.com 1.10,2013-05-11 01:06:00,
2013-05-10 21:21:00,73.9,65.0,0.00,SW,220,0.0,-999.0,74,-99.99,,,0.02,weatherlink.com 1.10,2013-05-11 01:21:00,
2013-05-10 21:36:00,74.7,64.0,0.00,NW,315,4.0,-999.0,70,-99.99,,,0.02,weatherlink.com 1.10,2013-05-11 01:36:00,
2013-05-10 21:51:00,74.0,64.0,0.00,NW,317,2.0,-999.0,72,-99.99,,,0.02,weatherlink.com 1.10,2013-05-11 01:51:00,
2013-05-10 22:06:00,72.4,64.0,0.00,NNW,346,0.0,-999.0,75,-99.99,,,0.02,weatherlink.com 1.10,2013-05-11 02:06:00,
2013-05-10 22:21:00,71.5,64.0,0.00,NNW,333,5.0,-999.0,77,-99.99,,,0.02,weatherlink.com 1.10,2013-05-11 02:21:00,
2013-05-10 22:30:00,71.1,64.6,18.07,NE,45,1.0,1.0,80,0.00,,,0.02,Wunderground v.1.15,2013-05-11 02:30:00,
2013-05-10 22:35:00,70.7,64.9,18.07,NNW,340,1.0,1.0,82,0.00,,,0.02,Wunderground v.1.15,2013-05-11 02:35:00,
2013-05-10 22:40:00,70.2,65.1,18.07,NNW,340,0.0,0.0,84,0.00,,,0.02,Wunderground v.1.15,2013-05-11 02:40:00,
2013-05-10 22:50:00,68.9,65.2,18.07,WNW,296,2.0,2.0,88,0.00,,,0.03,Wunderground v.1.15,2013-05-11 02:50:00,
2013-05-10 22:55:00,67.9,64.5,18.07,WSW,252,2.0,2.0,89,0.07,,,0.04,Wunderground v.1.15,2013-05-11 02:55:00,
2013-05-10 23:05:00,67.0,64.3,18.07,WNW,290,2.0,2.0,91,0.07,,,0.04,Wunderground v.1.15,2013-05-11 03:05:00,
2013-05-10 23:10:00,66.3,64.2,18.07,West,279,1.0,2.0,93,0.12,,,0.06,Wunderground v.1.15,2013-05-11 03:10:00,
2013-05-10 23:15:00,66.1,64.3,18.07,West,279,0.0,0.0,94,0.09,,,0.06,Wunderground v.1.15,2013-05-11 03:15:00,
2013-05-10 23:20:00,65.9,64.1,18.07,West,279,0.0,0.0,94,0.08,,,0.07,Wunderground v.1.15,2013-05-11 03:20:00,
2013-05-10 23:25:00,65.8,64.0,18.07,West,279,0.0,0.0,94,0.13,,,0.08,Wunderground v.1.15,2013-05-11 03:25:00,
2013-05-10 23:35:00,65.6,64.1,18.07,West,279,0.0,0.0,95,0.14,,,0.10,Wunderground v.1.15,2013-05-11 03:35:00,
2013-05-10 23:40:00,65.5,64.0,18.07,West,279,0.0,0.0,95,0.09,,,0.11,Wunderground v.1.15,2013-05-11 03:40:00,
2013-05-10 23:45:00,65.4,63.9,18.07,West,277,0.0,0.0,95,0.14,,,0.12,Wunderground v.1.15,2013-05-11 03:45:00,
2013-05-10 23:50:00,65.4,63.9,18.07,West,278,0.0,0.0,95,0.10,,,0.13,Wunderground v.1.15,2013-05-11 03:50:00,